Wind_Speed
17 19 19 17 16 16 16 15 14 12 11 12 13 13 13 13 13 13 13 14 14 14 14 15 15 16 17 17 18 19 20 21 22 22 22 23 23 23 24 25 24 24 22 23 24 24 24 24 24 25 25 24 24 25 25 27 28 28 26 26 27 27 27
22 23 21 18 17 17 15 15 14 13 12 12 13 13 13 12 12 12 13 13 14 14 14 15 15 16 16 16 17 18 18 19 20 21 21 22 23 24 25 24 24 24 24 24 25 24 24 24 25 25 25 24 24 24 24 26 27 26 25 25 26 26 27
23 22 20 18 18 17 15 14 14 13 12 12 13 13 12 12 11 11 11 12 13 13 14 14 15 15 15 15 16 17 17 18 19 19 20 21 22 23 24 24 24 24 25 25 25 25 25 25 25 26 26 25 24 23 23 24 25 25 25 25 25 25 27
21 20 18 17 17 17 14 13 13 12 11 12 13 13 12 12 11 10 10 10 11 11 12 12 13 13 13 14 14 15 15 16 17 18 19 20 21 22 23 23 23 24 24 25 25 25 25 25 26 26 25 24 23 23 23 23 24 25 26 26 25 25 25
19 19 16 15 16 15 13 12 12 11 10 11 13 13 12 12 11 10 9 9 9 10 10 10 10 11 11 12 13 13 14 15 15 16 17 18 19 20 21 21 22 21 21 22 22 23 23 23 24 24 24 23 23 22 23 23 24 25 27 27 27 26 26
18 17 15 14 13 13 12 11 12 11 10 10 11 13 12 11 10 10 9 9 9 9 9 9 9 9 10 11 11 12 13 14 14 15 15 16 17 18 19 19 19 19 19 19 19 20 20 21 21 21 21 22 22 21 21 22 23 24 25 26 27 28 28
17 15 13 12 13 13 12 11 11 11 10 9 10 12 12 11 10 9 9 9 9 10 9 9 9 9 9 9 10 11 12 12 13 13 14 14 15 16 16 16 17 16 16 17 17 17 17 18 18 18 19 19 20 19 19 20 22 22 23 24 25 27 28
16 15 14 14 15 14 13 11 11 11 11 10 10 11 11 10 9 8 8 8 8 9 9 9 9 9 9 9 9 10 10 11 11 11 12 12 13 13 14 14 14 14 14 14 15 15 15 15 16 16 16 16 16 17 17 17 18 19 19 20 21 23 25
17 15 15 15 16 15 14 12 11 11 11 10 10 11 11 10 8 7 7 7 7 7 8 8 9 9 9 9 9 9 10 10 11 11 11 11 12 12 12 12 12 13 13 13 14 14 14 14 14 14 14 14 13 13 13 14 15 15 15 15 16 18 19
20 15 14 15 16 16 15 14 12 11 11 11 10 10 10 9 9 8 8 8 8 8 9 9 9 9 9 9 10 10 10 11 11 11 12 11 12 11 11 11 12 12 12 13 13 14 14 14 13 13 13 13 12 11 11 11 11 12 12 12 13 13 15
23 15 14 16 16 16 16 16 14 12 12 12 11 11 10 10 10 10 10 10 10 11 11 11 11 11 11 11 11 11 11 11 12 12 12 12 12 12 12 11 12 12 12 12 12 13 13 13 13 13 13 13 12 12 11 11 11 11 11 11 11 11 12
21 15 14 15 13 14 15 16 16 15 14 13 13 13 12 12 12 12 12 12 12 12 13 13 13 13 13 13 13 12 12 12 12 12 13 13 13 14 14 13 13 13 13 12 12 12 13 13 13 13 13 13 13 13 12 12 12 12 12 11 11 11 11
15 13 12 12 13 14 15 16 17 17 15 14 14 15 15 14 14 13 13 14 14 14 13 13 12 12 12 12 12 12 12 13 13 13 13 13 14 14 15 15 15 15 15 14 14 14 14 14 14 14 14 14 14 14 14 13 13 13 13 13 13 13 13
15 13 12 13 15 16 16 16 17 17 17 16 16 16 17 16 15 14 14 13 13 13 13 12 11 10 10 10 10 11 12 13 13 14 14 13 14 14 15 15 16 16 16 15 15 14 14 13 13 13 14 14 14 14 14 14 14 14 14 14 15 15 15
16 17 17 18 19 19 18 18 18 18 19 20 19 18 18 17 16 16 15 15 14 14 14 13 13 12 11 10 11 11 11 12 13 14 14 14 15 15 15 16 17 17 17 16 15 14 13 12 11 11 11 11 12 12 13 13 14 14 14 15 16 17 18
18 19 20 19 19 18 17 17 18 19 22 22 21 21 20 20 19 17 16 16 15 15 15 16 16 15 15 15 15 14 13 13 14 15 15 16 17 18 18 18 19 19 19 18 17 15 14 14 13 13 12 12 12 12 12 13 14 15 15 16 16 17 18
21 19 18 17 17 17 17 18 19 21 23 23 23 23 22 21 21 19 18 18 18 18 17 18 18 18 18 18 18 17 16 16 17 18 19 20 20 20 21 21 21 21 22 21 20 20 19 18 17 17 16 15 15 14 14 14 15 15 16 17 18 18 18
21 18 18 18 18 19 19 20 20 22 23 24 24 25 24 23 22 21 21 21 21 20 20 21 21 20 20 20 20 20 19 19 20 21 23 25 25 25 24 24 24 24 24 25 24 24 24 24 23 22 20 19 18 18 18 17 17 17 18 19 20 20 20
20 20 19 19 19 20 21 21 21 22 24 25 27 27 26 26 25 24 25 25 23 23 24 25 24 24 24 24 23 23 23 23 22 22 23 24 24 23 23 23 23 24 24 25 26 27 27 27 27 26 25 23 23 22 22 21 20 20 20 21 21 21 21
20 19 19 19 19 20 22 23 22 22 23 26 29 29 27 26 27 27 27 27 27 27 27 27 26 26 26 26 26 26 26 26 26 25 23 22 20 20 21 22 24 25 24 24 25 26 27 28 29 29 28 27 27 27 26 25 24 24 23 22 22 22 22
18 18 20 20 18 18 20 22 23 22 22 25 28 30 29 26 26 28 27 28 29 29 29 28 26 25 25 26 27 28 28 28 29 28 27 26 25 25 25 25 26 26 26 26 25 26 27 29 30 30 30 31 31 31 31 31 30 29 27 26 25 25 25
20 21 21 19 18 20 21 23 25 24 24 26 27 30 31 26 25 26 26 24 24 23 24 26 26 27 28 28 30 31 32 31 31 31 32 31 31 30 30 30 29 29 29 29 29 29 30 31 32 33 34 35 36 37 37 36 36 35 34 32 32 31 31
25 26 24 22 23 25 26 27 28 27 28 30 29 29 30 28 27 28 27 25 24 23 24 26 28 30 31 32 33 34 34 33 32 32 33 33 33 33 33 33 33 33 34 33 33 33 34 35 36 37 38 38 40 41 41 41 40 40 39 38 38 38 38
30 32 32 30 30 32 31 30 30 29 30 31 31 29 30 30 31 32 31 29 29 29 30 31 32 33 33 34 35 35 35 35 35 35 35 35 36 36 37 37 37 37 37 37 37 38 38 38 39 40 40 40 41 43 44 44 44 44 43 43 43 43 43
31 32 34 34 34 36 35 33 33 33 34 36 36 35 35 35 35 34 33 32 33 33 33 33 34 35 36 37 37 38 38 39 40 41 41 41 41 40 41 41 41 40 40 39 40 40 39 40 41 41 40 40 41 42 44 44 45 45 45 45 46 46 46
34 34 35 36 36 37 37 37 36 36 37 40 41 42 42 42 39 37 37 37 36 35 34 34 35 36 38 39 39 40 41 42 43 44 45 46 45 43 43 43 43 42 41 41 41 40 39 42 44 44 43 43 43 44 45 45 45 45 45 45 46 47 47
36 36 35 35 35 36 38 38 38 39 40 41 42 42 42 41 40 39 40 39 38 37 37 38 39 40 41 42 42 42 43 44 45 46 47 47 47 46 45 45 45 45 44 44 44 43 43 43 45 46 45 45 45 45 46 46 47 48 48 49 49 49 49
39 38 37 36 36 36 37 38 39 39 40 41 42 42 42 41 41 41 40 40 39 40 41 42 43 44 45 44 44 44 44 44 45 45 46 47 48 48 47 48 48 48 48 48 48 48 47 45 44 46 47 47 47 48 48 48 50 51 51 52 52 51 50
42 41 41 41 40 40 40 40 41 41 41 41 41 41 40 41 41 42 42 42 42 43 44 45 46 47 47 46 45 45 45 45 46 46 47 47 48 49 49 49 49 49 49 49 48 48 49 49 50 52 53 53 54 53 53 53 54 54 53 53 53 52 52
44 44 45 45 45 44 44 44 44 44 44 42 42 41 41 42 43 45 46 46 45 45 46 47 48 48 48 47 46 46 46 47 47 48 48 49 49 50 50 51 51 50 49 49 49 49 49 51 53 54 55 55 56 55 56 56 56 56 55 54 54 54 55
46 48 48 48 48 47 47 47 47 47 46 46 45 45 46 47 48 48 49 48 48 47 48 48 49 50 50 50 49 49 48 48 48 48 48 49 49 50 51 51 52 52 52 52 52 52 52 53 54 55 56 56 56 56 57 57 56 56 55 55 56 56 57
50 50 50 48 48 48 48 48 49 49 49 49 50 50 51 50 50 50 51 50 48 48 49 50 50 50 51 52 52 52 51 50 49 49 49 49 49 50 50 51 52 52 53 54 54 54 54 54 55 56 56 56 56 56 56 56 56 56 56 56 56 57 57
48 47 46 45 45 46 46 47 48 50 52 52 53 53 53 51 50 50 50 49 49 51 52 52 52 52 52 52 53 53 52 51 50 50 49 49 49 49 50 50 50 51 51 51 51 51 52 52 53 53 54 54 55 55 55 56 56 56 56 56 56 57 57
47 46 46 46 47 47 47 48 49 51 52 53 54 53 52 51 50 50 50 51 53 55 55 54 53 53 52 53 53 53 52 51 50 49 49 49 49 48 48 48 48 48 48 48 48 48 48 48 49 50 51 52 53 54 54 55 55 56 56 56 56 56 57
51 50 49 49 49 49 49 49 51 51 52 53 54 54 53 53 53 52 53 55 56 57 57 56 54 53 53 53 52 52 52 51 49 49 48 48 48 48 47 48 48 48 47 47 47 47 47 47 47 48 49 50 51 52 53 53 54 55 55 55 56 56 57
54 54 53 53 52 51 51 51 52 52 52 53 54 55 56 55 55 55 56 58 60 61 60 59 56 55 54 53 52 52 51 50 49 48 48 47 47 47 47 47 47 47 47 47 47 47 47 47 47 48 48 49 50 51 51 52 52 53 54 55 55 56 56
55 53 51 52 53 53 52 52 52 52 51 51 52 54 55 55 56 57 59 61 63 63 62 60 58 56 55 54 54 53 52 50 49 48 48 47 47 46 47 47 47 47 47 46 46 47 47 47 47 47 47 47 48 49 50 50 51 52 53 53 54 55 55
Wind_Direction
284 301 302 300 300 293 286 280 274 275 277 272 265 257 251 248 247 249 251 253 254 254 256 257 257 257 256 254 253 251 250 248 248 249 250 251 251 250 250 250 251 251 252 255 255 256 258 259 260 260 260 260 260 259 257 255 254 251 250 250 253 254 254
280 292 293 293 296 295 292 287 278 273 275 274 268 263 258 253 252 253 256 260 262 263 264 264 264 263 260 258 256 254 252 251 251 252 252 253 253 253 254 254 255 256 256 257 258 258 260 261 261 261 262 261 260 260 258 254 252 251 249 248 249 250 252
278 287 289 288 291 296 296 290 282 274 272 274 268 261 258 253 252 254 256 258 262 265 267 266 265 264 262 261 259 258 256 255 255 255 255 255 256 256 258 258 258 258 258 259 260 259 259 260 261 261 262 261 260 260 259 253 249 246 246 245 246 249 251
279 285 288 286 288 296 298 289 280 273 270 271 266 257 251 248 245 246 250 253 257 260 262 264 265 265 263 262 261 260 258 257 256 256 256 256 257 257 259 260 259 259 260 262 263 262 262 262 262 263 263 262 261 261 260 255 247 244 243 244 247 250 250
279 281 283 283 290 299 301 290 276 268 264 265 263 255 247 243 241 240 243 247 251 255 258 261 263 264 263 261 260 260 258 257 256 256 256 255 256 256 258 260 262 262 262 263 263 264 264 265 265 265 265 263 262 261 261 258 252 247 245 244 246 247 246
277 278 280 281 291 304 306 293 277 266 261 263 262 255 246 241 240 239 240 243 246 250 254 257 260 261 261 260 258 258 257 258 257 256 256 255 256 257 259 262 264 264 264 264 263 264 264 265 265 266 265 264 262 261 260 259 257 254 250 248 247 246 246
274 269 272 280 289 300 304 295 282 272 267 268 266 258 249 241 240 241 243 246 249 252 253 255 257 259 260 262 262 262 261 260 260 261 260 260 260 261 263 265 266 266 265 264 263 262 263 263 264 264 263 263 262 261 258 257 257 256 254 251 250 249 249
272 263 265 278 284 289 294 293 286 278 273 273 272 264 252 242 238 242 247 252 255 257 259 259 257 256 256 260 265 270 272 270 271 271 271 271 270 268 267 267 266 264 262 260 259 258 258 258 260 261 261 260 260 259 256 254 253 254 254 253 252 252 253
260 262 266 276 280 281 287 290 288 283 277 275 274 269 262 251 245 247 250 253 254 255 258 261 262 262 260 260 263 268 275 278 281 283 284 284 283 281 278 274 271 268 264 261 259 258 257 256 257 258 259 259 257 256 255 253 253 252 252 253 251 251 253
250 254 262 267 276 280 282 285 286 286 282 276 273 271 269 263 255 255 256 256 255 252 252 255 258 262 266 269 272 274 277 280 283 285 286 286 287 286 285 282 278 275 273 270 268 267 265 262 261 261 261 261 258 256 253 251 253 252 250 250 250 250 250
245 246 260 262 271 277 276 279 281 283 282 276 273 271 269 266 260 259 260 261 261 259 259 260 258 257 258 260 264 270 276 281 284 285 284 284 283 281 279 277 275 274 274 273 272 271 271 270 267 265 263 263 262 258 254 250 250 251 251 250 251 251 251
246 254 265 259 264 272 273 278 279 280 278 271 268 268 266 265 264 264 266 265 265 265 267 271 271 268 264 260 258 258 262 268 274 280 283 284 285 283 281 278 276 274 272 272 272 271 271 272 272 270 267 265 264 263 260 256 254 254 255 256 258 259 257
271 270 261 247 254 264 270 277 278 279 277 269 266 267 265 264 264 266 270 271 271 270 272 278 284 284 281 276 270 266 264 264 266 271 276 282 286 287 286 283 280 279 277 276 275 274 275 275 276 276 274 272 271 270 270 268 265 263 261 262 264 266 267
281 268 254 251 257 263 267 270 273 275 274 269 266 265 264 263 261 262 265 269 273 273 273 273 274 277 280 285 286 284 282 279 274 272 273 277 282 286 287 286 283 281 279 278 276 275 273 272 273 274 276 277 277 277 278 278 278 277 274 272 271 271 272
277 266 262 262 261 262 264 262 264 268 268 267 265 262 260 258 257 259 261 264 268 271 270 266 262 264 270 282 290 291 291 293 290 285 282 283 285 286 286 287 287 286 283 281 278 276 273 269 267 267 268 271 274 276 277 277 277 278 277 275 273 273 274
285 273 266 269 266 262 262 259 258 260 262 265 265 262 259 254 252 253 255 258 263 265 266 264 263 266 272 283 290 288 286 294 298 294 291 291 291 289 286 284 284 285 282 280 277 273 270 266 263 263 262 263 265 267 270 272 273 274 274 272 271 272 273
289 276 265 271 269 262 261 260 257 256 258 262 265 265 263 258 253 253 255 256 256 257 260 261 263 267 272 280 286 285 284 290 296 296 294 292 290 289 286 281 278 278 276 275 274 273 272 269 267 266 265 263 263 264 266 269 272 275 278 277 275 274 275
287 276 264 265 263 258 260 262 261 258 256 258 262 264 262 256 253 257 262 262 259 258 259 260 262 267 271 275 277 276 277 281 288 294 296 292 286 283 283 277 273 273 272 271 270 270 271 271 271 270 268 267 267 265 264 265 269 273 276 277 277 277 276
283 277 269 263 260 259 261 262 262 259 258 258 259 258 255 252 254 259 263 263 262 262 262 261 262 266 271 274 276 275 277 281 286 290 293 292 285 281 280 275 273 274 275 274 271 269 269 268 268 269 269 270 270 269 266 266 269 272 274 274 275 276 277
280 277 271 267 267 266 264 264 264 262 261 262 259 253 249 251 253 254 257 262 263 262 262 261 261 264 268 271 274 276 280 284 285 284 283 282 280 281 280 278 278 279 280 279 277 274 272 269 267 265 265 266 268 269 268 268 270 273 274 274 274 276 278
274 269 269 271 271 267 264 264 264 264 266 269 262 248 243 250 254 250 250 258 264 264 263 260 260 265 269 270 272 275 277 279 279 278 275 273 274 276 277 276 277 277 278 279 279 278 276 273 271 268 266 266 267 268 268 269 270 272 273 272 271 272 275
271 264 265 273 275 268 267 266 263 259 260 264 257 242 238 244 246 243 245 253 262 268 266 263 265 269 271 271 271 273 275 275 274 274 274 274 273 272 272 272 271 271 273 274 276 276 275 275 274 273 271 271 270 270 269 268 269 270 271 271 269 269 270
272 263 261 271 274 270 268 267 263 258 252 251 249 247 249 251 245 245 253 260 264 272 274 272 272 273 273 272 272 273 274 274 273 272 273 274 274 273 271 270 269 268 269 270 271 272 272 273 273 272 272 272 271 270 269 267 267 268 269 270 269 269 269
269 265 264 265 265 266 268 265 260 255 250 249 252 253 257 259 257 258 264 267 270 275 278 276 274 273 272 272 271 271 272 273 274 275 275 276 275 274 273 272 271 271 271 271 271 271 272 272 272 272 272 271 270 269 268 267 266 266 267 268 269 269 269
267 265 265 263 262 265 269 267 260 256 254 257 260 258 258 262 266 266 267 270 274 278 279 276 275 274 273 271 271 271 272 273 274 276 278 279 278 277 276 275 276 276 275 274 273 273 274 275 275 273 272 271 269 269 269 268 268 267 267 267 268 268 269
272 268 266 265 265 268 271 270 267 264 262 263 265 264 263 264 266 266 267 271 276 278 278 277 277 278 277 276 275 274 273 273 273 275 277 278 279 279 278 277 277 277 275 275 275 274 274 275 275 274 272 270 270 271 271 271 271 269 268 268 268 269 271
270 268 267 268 271 273 273 273 271 269 267 266 265 265 263 263 264 264 267 272 276 278 279 280 281 281 280 280 278 276 274 273 274 275 276 277 278 278 277 277 276 276 275 275 275 276 276 275 275 274 273 272 271 272 272 272 271 271 270 270 271 272 273
263 263 267 273 276 276 275 274 273 270 267 265 264 264 264 265 266 267 270 275 279 282 284 284 284 283 282 280 278 277 276 275 275 275 275 276 276 276 276 276 276 276 276 276 275 276 276 275 274 273 274 274 274 273 273 272 271 271 272 273 273 274 275
262 263 267 273 276 276 275 275 274 272 269 266 265 265 267 269 271 273 276 279 283 285 286 286 285 284 282 280 277 276 276 276 276 276 275 275 276 276 276 276 276 276 277 277 276 275 274 273 272 272 274 275 275 274 273 273 273 273 273 273 273 274 274
263 264 267 271 273 273 273 273 273 273 272 270 269 269 271 274 276 277 277 279 280 283 285 286 286 285 283 281 278 276 274 274 274 274 274 274 274 275 276 276 277 277 277 277 277 276 275 274 273 274 275 275 275 275 274 274 273 273 273 272 271 271 271
264 266 268 270 271 271 271 271 272 273 273 272 272 273 275 277 277 277 277 277 278 282 286 287 287 286 285 283 281 279 277 276 275 274 274 274 274 274 274 275 276 277 277 278 278 277 277 276 276 276 276 276 275 275 275 274 274 273 272 271 270 270 270
265 267 269 270 270 270 270 271 272 271 271 271 272 274 276 277 278 278 278 277 279 284 288 288 288 287 285 283 282 281 280 279 279 278 278 278 277 277 276 276 276 276 277 277 278 278 278 277 277 277 277 276 276 275 275 274 274 273 272 271 270 269 269
264 265 267 268 269 270 271 272 271 270 269 270 271 273 275 277 278 279 278 277 279 284 288 289 289 288 286 283 281 280 279 279 280 280 280 280 280 279 278 278 278 278 278 278 278 278 278 278 278 277 277 277 276 276 275 274 274 273 272 271 271 270 269
260 262 264 266 268 269 271 271 270 269 269 269 270 271 272 275 277 277 276 276 279 283 287 289 289 287 286 284 282 279 279 279 280 280 280 279 279 279 279 279 279 279 279 280 280 280 279 279 279 278 277 276 275 275 274 274 273 273 272 272 271 270 269
259 260 262 264 266 267 268 269 269 269 269 269 270 270 271 273 275 276 277 278 280 283 285 287 287 285 284 283 282 280 279 279 279 278 278 277 278 278 279 279 279 280 280 280 281 281 281 282 281 280 280 278 277 276 275 275 274 274 273 273 272 271 271
260 262 263 263 264 264 265 265 266 267 269 269 270 271 272 274 275 277 279 281 282 284 285 285 285 284 282 281 281 280 279 278 278 277 276 276 277 277 278 279 279 280 281 281 282 282 282 283 283 283 282 282 281 279 278 277 276 275 275 274 274 273 273
261 262 262 261 260 260 260 259 259 261 264 265 267 268 270 273 274 276 279 281 282 283 283 283 283 282 281 280 279 279 278 278 277 277 276 276 276 277 278 278 279 280 280 281 281 282 282 282 283 284 284 284 283 281 280 280 279 278 277 276 276 276 275
Height
5758 5757 5757 5757 5757 5756 5755 5754 5754 5754 5754 5755 5755 5755 5756 5757 5758 5758 5759 5759 5759 5758 5758 5759 5759 5759 5759 5759 5758 5758 5758 5759 5759 5759 5760 5760 5760 5761 5760 5760 5760 5760 5760 5760 5760 5760 5761 5761 5761 5761 5761 5761 5761 5761 5762 5762 5762 5763 5765 5766 5766 5766 5766
5756 5755 5755 5755 5756 5755 5754 5753 5752 5752 5752 5753 5753 5753 5754 5754 5755 5756 5756 5757 5757 5757 5757 5757 5757 5757 5757 5757 5756 5756 5756 5756 5757 5757 5757 5757 5757 5758 5758 5758 5757 5757 5758 5758 5757 5758 5758 5758 5758 5758 5758 5758 5758 5759 5759 5759 5760 5761 5762 5762 5762 5762 5762
5754 5753 5753 5753 5753 5753 5752 5752 5751 5751 5751 5751 5751 5752 5752 5752 5753 5753 5754 5755 5755 5755 5755 5755 5755 5755 5755 5754 5754 5754 5754 5754 5754 5755 5755 5755 5755 5755 5756 5756 5756 5755 5755 5755 5755 5755 5755 5755 5755 5755 5755 5755 5756 5756 5756 5757 5757 5758 5758 5758 5759 5759 5759
5752 5751 5751 5751 5751 5751 5750 5750 5749 5749 5749 5750 5750 5750 5751 5751 5751 5751 5752 5752 5753 5753 5753 5753 5753 5753 5753 5752 5752 5752 5752 5752 5752 5753 5753 5753 5753 5753 5753 5753 5753 5753 5753 5753 5753 5753 5753 5753 5753 5753 5753 5753 5754 5753 5753 5754 5755 5755 5755 5755 5755 5755 5755
5749 5748 5748 5749 5748 5748 5748 5748 5748 5748 5748 5748 5749 5749 5749 5749 5749 5750 5750 5750 5750 5751 5751 5751 5751 5751 5751 5751 5751 5750 5750 5750 5750 5750 5751 5751 5751 5751 5751 5751 5751 5752 5752 5752 5751 5751 5751 5751 5751 5751 5751 5751 5751 5751 5751 5751 5752 5752 5752 5752 5752 5752 5752
5747 5746 5746 5746 5746 5745 5746 5746 5746 5746 5746 5746 5747 5747 5747 5747 5747 5748 5748 5748 5748 5748 5749 5749 5749 5749 5749 5749 5749 5749 5749 5748 5748 5748 5749 5749 5749 5749 5749 5749 5749 5749 5750 5749 5749 5749 5749 5749 5748 5748 5748 5748 5748 5749 5748 5748 5748 5749 5749 5749 5749 5749 5749
5745 5744 5743 5743 5743 5743 5744 5744 5744 5744 5744 5744 5745 5745 5745 5745 5746 5746 5746 5746 5747 5747 5747 5747 5747 5747 5748 5748 5748 5748 5748 5747 5747 5747 5747 5747 5747 5747 5747 5747 5747 5747 5747 5747 5747 5747 5747 5746 5746 5746 5746 5745 5745 5746 5746 5746 5746 5746 5746 5746 5746 5746 5747
5742 5741 5741 5741 5741 5741 5741 5742 5742 5742 5742 5742 5743 5743 5743 5743 5743 5744 5744 5745 5745 5745 5745 5746 5746 5746 5746 5746 5747 5747 5747 5746 5746 5746 5746 5746 5745 5745 5745 5745 5745 5745 5745 5745 5745 5745 5745 5745 5744 5744 5743 5743 5743 5743 5743 5743 5743 5743 5743 5743 5744 5744 5744
5739 5739 5739 5739 5738 5739 5739 5740 5740 5740 5741 5741 5741 5741 5742 5742 5742 5742 5742 5743 5743 5744 5744 5744 5745 5745 5745 5745 5745 5746 5746 5745 5745 5745 5745 5745 5744 5744 5744 5744 5744 5744 5744 5744 5744 5744 5743 5743 5743 5742 5742 5742 5741 5741 5741 5741 5741 5741 5742 5742 5742 5742 5742
5736 5737 5738 5737 5736 5737 5737 5738 5739 5739 5739 5740 5740 5740 5740 5740 5740 5740 5741 5741 5742 5742 5742 5743 5743 5743 5744 5744 5744 5745 5745 5745 5745 5744 5744 5744 5744 5743 5743 5743 5743 5743 5743 5743 5743 5743 5742 5742 5742 5741 5741 5741 5740 5740 5740 5740 5740 5740 5740 5740 5740 5740 5740
5733 5734 5735 5734 5734 5735 5735 5736 5737 5737 5738 5738 5738 5738 5738 5738 5739 5739 5739 5740 5740 5741 5741 5741 5741 5742 5742 5742 5742 5743 5743 5743 5744 5744 5743 5743 5743 5743 5742 5742 5742 5742 5742 5742 5742 5742 5741 5741 5741 5741 5740 5740 5740 5739 5739 5739 5739 5739 5739 5739 5739 5739 5739
5730 5731 5732 5732 5732 5733 5733 5734 5735 5736 5736 5737 5737 5737 5737 5737 5737 5737 5738 5738 5739 5739 5739 5740 5740 5740 5740 5740 5740 5740 5741 5741 5741 5742 5742 5742 5741 5741 5741 5741 5741 5740 5740 5741 5740 5740 5740 5740 5740 5740 5740 5739 5739 5739 5739 5739 5738 5738 5738 5738 5738 5738 5738
5728 5729 5730 5730 5730 5730 5731 5732 5732 5733 5734 5735 5735 5735 5735 5736 5736 5736 5736 5737 5737 5737 5738 5738 5738 5739 5739 5739 5739 5739 5739 5739 5739 5739 5739 5740 5740 5740 5740 5739 5739 5739 5739 5739 5739 5739 5739 5739 5739 5738 5738 5738 5738 5738 5738 5738 5738 5738 5738 5738 5737 5737 5737
5726 5727 5727 5728 5728 5728 5729 5729 5729 5730 5731 5732 5733 5733 5733 5734 5734 5734 5735 5735 5735 5736 5736 5736 5737 5737 5737 5737 5737 5737 5738 5738 5737 5737 5737 5738 5738 5738 5738 5738 5738 5738 5738 5738 5738 5738 5738 5737 5737 5737 5737 5737 5737 5737 5737 5737 5737 5737 5737 5737 5737 5736 5736
5723 5724 5724 5724 5725 5726 5726 5726 5726 5727 5727 5728 5729 5730 5730 5731 5731 5732 5732 5733 5733 5734 5734 5734 5734 5734 5735 5735 5735 5735 5736 5735 5736 5736 5736 5736 5736 5736 5736 5736 5736 5736 5736 5736 5736 5736 5736 5735 5735 5735 5735 5735 5735 5735 5735 5735 5735 5735 5735 5735 5735 5735 5735
5721 5721 5721 5721 5722 5723 5724 5724 5724 5724 5723 5724 5725 5726 5727 5728 5728 5729 5729 5730 5731 5731 5731 5732 5732 5732 5733 5733 5733 5734 5734 5734 5734 5734 5734 5735 5735 5735 5735 5734 5735 5734 5734 5734 5734 5734 5734 5734 5734 5733 5733 5733 5733 5732 5732 5732 5732 5732 5732 5732 5733 5733 5732
5718 5718 5718 5719 5719 5720 5721 5721 5721 5721 5721 5721 5722 5722 5724 5725 5725 5726 5727 5727 5727 5728 5729 5729 5729 5730 5730 5731 5731 5731 5732 5732 5732 5732 5733 5733 5733 5733 5733 5733 5732 5732 5732 5732 5732 5732 5732 5732 5732 5732 5731 5731 5731 5730 5730 5729 5729 5729 5729 5729 5729 5730 5730
5716 5715 5715 5715 5716 5716 5717 5718 5719 5719 5719 5720 5720 5720 5721 5722 5722 5723 5723 5724 5724 5725 5725 5726 5727 5727 5728 5728 5729 5729 5730 5730 5730 5730 5730 5730 5730 5731 5731 5731 5730 5730 5730 5730 5730 5730 5730 5730 5729 5729 5729 5729 5728 5728 5727 5727 5726 5726 5726 5726 5726 5726 5726
5713 5711 5711 5711 5712 5713 5714 5715 5715 5716 5716 5717 5718 5718 5718 5718 5719 5720 5720 5720 5721 5721 5722 5722 5723 5724 5724 5725 5725 5726 5726 5727 5727 5727 5727 5727 5726 5727 5727 5728 5728 5728 5727 5727 5728 5728 5727 5727 5727 5726 5726 5726 5726 5725 5725 5725 5724 5724 5723 5723 5723 5722 5722
5709 5708 5707 5707 5708 5709 5710 5711 5712 5712 5713 5714 5714 5715 5716 5716 5716 5717 5717 5717 5717 5717 5717 5718 5719 5720 5720 5721 5721 5722 5722 5723 5723 5724 5724 5724 5724 5724 5724 5725 5725 5725 5725 5724 5724 5724 5724 5724 5723 5723 5723 5723 5722 5722 5722 5721 5721 5721 5720 5720 5720 5719 5719
5707 5706 5705 5705 5706 5706 5707 5708 5708 5709 5710 5711 5711 5712 5713 5713 5713 5714 5714 5714 5713 5713 5714 5715 5716 5717 5717 5717 5718 5718 5718 5719 5719 5720 5721 5721 5721 5721 5721 5721 5721 5721 5721 5721 5721 5720 5720 5720 5719 5719 5719 5719 5719 5718 5718 5717 5717 5717 5717 5717 5717 5716 5716
5703 5704 5703 5703 5704 5704 5704 5704 5705 5706 5708 5708 5707 5708 5709 5709 5709 5709 5710 5710 5710 5710 5711 5712 5713 5714 5714 5714 5714 5714 5714 5715 5715 5716 5716 5716 5717 5717 5717 5717 5717 5717 5717 5716 5716 5716 5716 5715 5715 5715 5715 5715 5714 5714 5713 5713 5713 5713 5713 5713 5712 5712 5711
5699 5699 5699 5700 5700 5700 5700 5701 5701 5702 5704 5703 5702 5702 5703 5703 5703 5703 5704 5705 5706 5707 5708 5709 5710 5710 5710 5710 5710 5710 5710 5711 5711 5712 5711 5711 5712 5712 5712 5712 5712 5712 5712 5712 5712 5711 5711 5711 5710 5710 5710 5710 5709 5708 5708 5708 5708 5708 5708 5708 5707 5707 5706
5695 5695 5695 5696 5696 5695 5696 5698 5699 5699 5700 5699 5699 5699 5698 5697 5698 5698 5699 5700 5701 5703 5704 5704 5705 5705 5705 5706 5706 5706 5705 5705 5706 5706 5706 5706 5706 5706 5706 5706 5706 5706 5707 5707 5706 5706 5706 5705 5704 5704 5704 5704 5703 5702 5702 5702 5702 5702 5702 5702 5702 5701 5701
5690 5690 5691 5691 5692 5691 5692 5694 5695 5695 5695 5694 5695 5695 5693 5693 5694 5694 5695 5695 5696 5698 5699 5699 5699 5700 5700 5700 5700 5700 5700 5700 5700 5700 5700 5700 5700 5700 5699 5699 5700 5700 5700 5700 5700 5700 5700 5699 5697 5697 5698 5698 5697 5696 5696 5696 5696 5696 5696 5696 5696 5695 5695
5685 5686 5685 5686 5686 5686 5687 5688 5689 5690 5690 5690 5689 5689 5688 5688 5690 5690 5690 5691 5691 5692 5693 5693 5693 5693 5693 5693 5693 5694 5694 5694 5694 5694 5693 5693 5693 5693 5692 5693 5693 5693 5693 5693 5693 5693 5693 5692 5690 5690 5691 5691 5690 5690 5690 5690 5690 5690 5689 5689 5689 5689 5689
5681 5680 5679 5679 5680 5681 5681 5682 5683 5684 5685 5684 5684 5684 5683 5684 5685 5685 5685 5685 5685 5686 5686 5686 5687 5687 5687 5687 5687 5688 5688 5688 5688 5688 5688 5687 5687 5686 5686 5686 5686 5686 5686 5686 5686 5686 5686 5685 5684 5683 5683 5683 5684 5684 5684 5684 5683 5683 5682 5682 5682 5682 5682
5675 5674 5673 5673 5674 5675 5675 5676 5677 5678 5679 5679 5678 5678 5678 5678 5678 5679 5679 5679 5680 5680 5680 5680 5681 5681 5681 5681 5681 5682 5682 5682 5682 5682 5681 5681 5681 5680 5680 5680 5680 5680 5680 5680 5679 5679 5678 5678 5677 5675 5675 5676 5677 5677 5677 5677 5676 5675 5675 5675 5675 5674 5674
5669 5669 5669 5669 5669 5669 5670 5670 5670 5671 5672 5672 5673 5672 5672 5672 5672 5673 5673 5673 5674 5674 5674 5674 5675 5675 5675 5675 5675 5675 5675 5675 5675 5675 5675 5675 5675 5674 5674 5674 5673 5673 5673 5673 5673 5672 5672 5671 5670 5669 5669 5669 5669 5669 5669 5669 5668 5668 5667 5667 5667 5666 5665
5662 5663 5663 5663 5664 5664 5664 5664 5664 5664 5665 5666 5666 5667 5667 5667 5667 5668 5668 5668 5669 5669 5669 5669 5668 5668 5668 5668 5669 5669 5669 5669 5669 5669 5668 5669 5668 5668 5668 5667 5667 5667 5666 5666 5666 5666 5665 5664 5663 5662 5662 5661 5661 5661 5661 5660 5660 5660 5659 5659 5658 5657 5656
5655 5656 5656 5657 5658 5658 5658 5658 5658 5658 5658 5658 5659 5659 5660 5661 5661 5662 5662 5662 5663 5663 5662 5662 5662 5662 5661 5662 5662 5662 5662 5662 5662 5662 5662 5662 5662 5662 5662 5661 5660 5660 5659 5659 5659 5658 5658 5657 5656 5655 5654 5654 5653 5653 5652 5652 5652 5651 5651 5650 5649 5649 5648
5648 5648 5649 5650 5651 5651 5651 5651 5652 5652 5652 5652 5652 5652 5653 5654 5654 5655 5655 5655 5655 5655 5655 5655 5655 5655 5655 5655 5656 5656 5656 5656 5656 5655 5655 5655 5655 5655 5654 5654 5654 5653 5652 5652 5651 5651 5650 5649 5648 5647 5646 5646 5645 5645 5644 5644 5643 5643 5642 5641 5640 5640 5639
5641 5641 5642 5643 5644 5644 5644 5645 5645 5645 5645 5646 5646 5646 5646 5647 5647 5647 5647 5648 5648 5648 5648 5648 5648 5648 5648 5649 5649 5649 5650 5650 5649 5649 5649 5648 5647 5647 5647 5647 5646 5646 5645 5644 5644 5643 5642 5642 5641 5640 5639 5638 5637 5636 5636 5635 5634 5634 5633 5633 5632 5631 5631
5633 5635 5636 5636 5637 5638 5638 5638 5638 5639 5639 5640 5640 5641 5641 5641 5642 5641 5641 5641 5641 5641 5641 5641 5641 5641 5642 5642 5642 5643 5643 5643 5643 5643 5642 5641 5641 5640 5640 5640 5639 5639 5638 5638 5637 5636 5635 5634 5634 5632 5631 5630 5629 5628 5627 5626 5626 5625 5625 5625 5624 5623 5622
5625 5627 5629 5630 5631 5631 5632 5632 5631 5632 5632 5633 5634 5634 5635 5635 5635 5635 5635 5635 5634 5635 5635 5635 5635 5635 5635 5636 5636 5636 5636 5636 5636 5636 5636 5635 5634 5634 5633 5633 5633 5632 5632 5631 5630 5629 5628 5627 5626 5625 5624 5622 5621 5620 5619 5619 5618 5617 5617 5616 5615 5615 5614
5618 5620 5622 5624 5625 5625 5625 5625 5625 5625 5626 5627 5627 5627 5628 5628 5628 5628 5627 5627 5627 5627 5627 5628 5628 5629 5629 5629 5630 5630 5630 5630 5630 5629 5629 5629 5628 5628 5627 5627 5626 5626 5626 5625 5624 5623 5622 5620 5619 5618 5617 5615 5614 5613 5612 5611 5610 5609 5609 5608 5607 5606 5605
5611 5613 5615 5617 5618 5618 5618 5618 5619 5619 5620 5621 5622 5622 5622 5622 5622 5621 5621 5620 5620 5620 5620 5621 5621 5622 5622 5623 5623 5623 5623 5624 5623 5623 5623 5623 5623 5622 5621 5620 5620 5620 5619 5619 5618 5617 5615 5614 5613 5612 5610 5609 5608 5606 5605 5604 5603 5602 5601 5600 5599 5598 5597